Weather History for Keahole Point, HI

Change the Weather History Date:

Wednesday, December 12, 2012

  Actual Average Record
Temperature  
Mean Temperature 75 °F -  
Max Temperature 80 °F 80 °F 88 °F (1989)
Min Temperature 70 °F 68 °F 65 °F (1989)
Cooling Degree Days 10    
Growing Degree Days 25 (Base 50)    
Moisture  
Dew Point 63 °F    
Average Humidity 65    
Maximum Humidity 81    
Minimum Humidity 50    
Precipitation  
Precipitation 0.01 in - - ()
Sea Level Pressure  
Sea Level Pressure 30.01 in    
Wind  
Wind Speed 7 mph (ESE)    
Max Wind Speed 20 mph    
Max Gust Speed 32 mph    
Visibility 10 miles    
Events Rain    
Averages and records for this station are not official NWS values.
T = Trace of Precipitation, MM = Missing Value Source: NWS Daily Summary

Daily Weather History Graph

Daily Weather History Graph

Search for Another Location

Airport:

Trip Planner

Search our weather history database for the weather conditions in past years. The results will help you decide how hot, cold, wet, or windy it might be!

Date:

Astronomy

Dec. 12, 2012 Rise Set
Actual Time 6:49 AM HST 5:46 PM HST
Civil Twilight 6:25 AM HST 6:10 PM HST
Nautical Twilight 5:58 AM HST 6:38 PM HST
Astronomical Twilight 5:31 AM HST 7:05 PM HST
Moon 6:08 AM HST (12/12) 5:33 PM HST (12/12)
Length of Visible Light 11h 45m
Length of Day
10h 57m
Waning Crescent, 0% of the Moon is Illuminated
Dec 12
Waning Crescent
Dec 12
New
Dec 19
First Quarter
Dec 28
Full
Jan 4
Last Quarter

Hourly Weather History & Observations

Time (HST) Temp. Heat Index Dew Point Humidity Pressure Visibility Wind Dir Wind Speed Gust Speed Precip Events Conditions
12:19 AM 73.4 °F - 64.4 °F 73% 30.03 in 10.0 mi ESE 8.1 mph - 0.00 in   Mostly Cloudy
12:53 AM 73.0 °F - 64.0 °F 73% 30.02 in 10.0 mi East 8.1 mph - 0.00 in   Partly Cloudy
1:19 AM 73.4 °F - 62.6 °F 69% 30.01 in 10.0 mi ENE 8.1 mph - N/A   Mostly Cloudy
1:53 AM 73.0 °F - 63.0 °F 71% 30.01 in 10.0 mi ENE 6.9 mph - 0.01 in   Overcast
2:42 AM 73.4 °F - 62.6 °F 69% 29.98 in 10.0 mi SE 6.9 mph - N/A   Overcast
2:53 AM 72.0 °F - 63.0 °F 73% 29.98 in 10.0 mi SE 6.9 mph - N/A   Mostly Cloudy
3:53 AM 73.0 °F - 64.9 °F 76% 29.98 in 10.0 mi ESE 5.8 mph - N/A   Mostly Cloudy
4:53 AM 72.0 °F - 64.0 °F 76% 29.98 in 10.0 mi Calm Calm - N/A   Partly Cloudy
5:53 AM 70.0 °F - 64.0 °F 81% 29.99 in 10.0 mi NE 3.5 mph - N/A   Clear
6:53 AM 70.0 °F - 63.0 °F 78% 30.01 in 10.0 mi NE 3.5 mph - N/A   Partly Cloudy
7:53 AM 72.0 °F - 64.9 °F 78% 30.03 in 10.0 mi Calm Calm - N/A   Partly Cloudy
8:53 AM 77.0 °F - 64.9 °F 66% 30.04 in 10.0 mi Calm Calm - N/A   Clear
9:53 AM 78.1 °F - 64.0 °F 62% 30.04 in 10.0 mi West 5.8 mph - N/A   Clear
10:53 AM 79.0 °F - 64.9 °F 62% 30.04 in 10.0 mi South 6.9 mph - N/A   Mostly Cloudy
11:53 AM 78.1 °F - 64.9 °F 64% 30.02 in 10.0 mi WSW 6.9 mph - N/A   Overcast
12:53 PM 79.0 °F - 64.0 °F 60% 30.00 in 10.0 mi WSW 8.1 mph - N/A   Overcast
1:53 PM 80.1 °F 81.7 °F 64.0 °F 58% 29.98 in 10.0 mi SSW 10.4 mph - N/A   Overcast
2:53 PM 79.0 °F - 63.0 °F 58% 29.98 in 10.0 mi WSW 9.2 mph - N/A   Overcast
3:53 PM 79.0 °F - 64.9 °F 62% 29.97 in 10.0 mi WSW 6.9 mph - N/A   Mostly Cloudy
4:53 PM 80.1 °F 80.9 °F 60.1 °F 50% 29.97 in 10.0 mi ENE 8.1 mph 21.9 mph N/A   Mostly Cloudy
5:53 PM 77.0 °F - 57.0 °F 50% 29.98 in 10.0 mi NE 19.6 mph 32.2 mph 0.00 in Rain Light Rain
6:53 PM 75.9 °F - 57.9 °F 54% 29.99 in 10.0 mi NNE 16.1 mph - 0.00 in   Clear
7:53 PM 75.0 °F - 57.9 °F 55% 30.01 in 10.0 mi NNE 6.9 mph - N/A   Mostly Cloudy
8:53 PM 73.9 °F - 57.0 °F 55% 30.02 in 10.0 mi NNE 9.2 mph - N/A   Clear
9:53 PM 75.9 °F - 64.0 °F 67% 30.04 in 10.0 mi SE 5.8 mph - N/A   Overcast
10:53 PM 75.9 °F - 63.0 °F 64% 30.04 in 10.0 mi SE 3.5 mph - N/A   Overcast
11:53 PM 75.9 °F - 63.0 °F 64% 30.04 in 10.0 mi SSW 3.5 mph - N/A   Mostly Cloudy